Weather WX

World > North America > United States > Ohio

Rocky Ridge, Ohio Regional Weather

Lat: 41.53N, Lon: 83.21W
Wx Zone: OHZ007
Warning FLW WEATHER ALERT - FLASH FLOOD WATCH (More Info. Click Here) Warning
Feedback

Rocky Ridge, OH Regional Weather

Expires:201906161700;;167390
ASUS41 KCLE 161612
RWRCLE
OHIO REGIONAL WEATHER ROUNDUP
NATIONAL WEATHER SERVICE WILMINGTON, OH
1200 PM EDT SUN JUN 16 2019

NOTE: "FAIR" INDICATES FEW OR NO CLOUDS BELOW 12,000 FEET WITH NO
SIGNIFICANT WEATHER AND/OR OBSTRUCTIONS TO VISIBILITY.


OHZ001>008-015>018-024>027-034-035-043-044-161700-
   NORTHWEST OHIO
  
CITY           SKY/WX    TMP DP  RH WIND       PRES   REMARKS
DEFIANCE       CLOUDY    67  64  90 CALM      29.83R FOG              
FINDLAY        PTSUNNY   76  67  73 W14       29.81R                  
TOLEDO EXPRESS CLOUDY    68  61  78 NE7       29.82R HAZE             
TOLEDO EXEC    LGT RAIN  62  62 100 N9        29.83R FOG              
LIMA           PTSUNNY   74  66  76 W17       29.84R                  
$$
 

SKY/WX - Weather  TMP - Temperature  DP - Dew Point  RH - Relative Humidity
WIND - Wind Direction/Speed PRES - Barometric Pressure VSB - Visibility
WCI - Wind Chill Index E13G22 Wind - East Wind 13 mph/Gusts of 22 mph